User: anonymous   Login
Location: Hamburg
(53.5500°N, 10.0000°E)
Time: 12:51:26
(UTC+02:00)
Language:

Courier 1B - Orbit

View from above orbital plane
View from above orbital plane
View from above satellite
View from above satellite

Ground track
Ground track

The orbit data is extracted from the following two-line orbital elements,

1    58U 60013A   17204.89432691 +.00000080 +00000-0 -91272-5 0  9994
2    58 028.3295 069.9980 0165063 297.1223 061.2575 13.46309495795722
Epoch (UTC): 23 July 2017 21:27:49
Eccentricity: 0.0165063
inclination: 28.3295°
perigee height: 962 km
apogee height: 1209 km
right ascension of ascending node: 69.9980°
argument of perigee: 297.1223°
revolutions per day: 13.46309495
mean anomaly at epoch: 61.2575°
orbit number at epoch: 79572

The dashed part of the orbit path shows where the satellite is in the earth's shadow,  

DLR